Weather History for Faith, SD

Change the Weather History Date:

Wednesday, December 11, 2013

  Actual Average Record
Temperature  
Mean Temperature 5 °F 21 °F  
Max Temperature 23 °F 31 °F 64 °F (2004)
Min Temperature -13 °F 12 °F -13 °F (2013)
Degree Days  
Heating Degree Days 60 44  
Month to date heating degree days 644 468  
Since 1 July heating degree days 2394 2251  
Cooling Degree Days 0 0  
Month to date cooling degree days 0 0  
Year to date cooling degree days 720 635  
Moisture  
Dew Point -1 °F    
Average Humidity 72    
Maximum Humidity 87    
Minimum Humidity 57    
Precipitation  
Precipitation 0.00 in 0.01 in 0.01 in (2008)
Month to date precipitation 0.37 0.12  
Year to date precipitation 16.70 17.38  
Sea Level Pressure  
Sea Level Pressure 30.45 in    
Wind  
Wind Speed 11 mph (SW)    
Max Wind Speed 20 mph    
Max Gust Speed 24 mph    
T = Trace of Precipitation, MM = Missing Value Source: NWS Daily Summary

Daily Weather History Graph

Daily Weather History Graph

Search for Another Location

Airport:

Trip Planner

Search our weather history database for the weather conditions in past years. The results will help you decide how hot, cold, wet, or windy it might be!

Date:

Astronomy

Dec. 11, 2013 Rise Set
Actual Time 7:16 AM MST 4:06 PM MST
Civil Twilight 6:42 AM MST 4:40 PM MST
Nautical Twilight 6:05 AM MST 5:17 PM MST
Astronomical Twilight 5:30 AM MST 5:52 PM MST
Moon 12:52 PM MST (12/11) 1:27 AM MST (12/11)
Length of Visible Light 9h 57m
Length of Day
8h 49m
Waxing Gibbous, 72% of the Moon is Illuminated
Dec 11
Waxing Gibbous
Dec 17
Full
Dec 25
Last Quarter
Jan 1
New
Jan 7
First Quarter

Hourly Weather History & Observations

Time (MST) Temp. Windchill Dew Point Humidity Pressure Visibility Wind Dir Wind Speed Gust Speed Precip Events Conditions
12:56 AM -5.1 °F - -9.9 °F 80% 30.55 in - Calm Calm - N/A   Unknown
1:56 AM -2.9 °F -11.2 °F -9.0 °F 75% 30.56 in - West 3.5 mph - N/A   Unknown
2:56 AM -5.1 °F -15.8 °F -9.9 °F 80% 30.56 in - WNW 4.6 mph - N/A   Unknown
3:56 AM -13.0 °F -30.0 °F -17.0 °F 82% 30.56 in - South 8.1 mph - N/A   Unknown
4:56 AM -11.0 °F -29.9 °F -14.1 °F 86% 30.56 in - South 10.4 mph - N/A   Unknown
5:56 AM -8.0 °F -25.0 °F -11.9 °F 83% 30.56 in - SW 9.2 mph - N/A   Unknown
6:56 AM -5.1 °F -19.1 °F -9.0 °F 83% 30.57 in - SW 6.9 mph - N/A   Unknown
7:56 AM -2.9 °F -17.7 °F -6.0 °F 87% 30.55 in - SSW 8.1 mph - N/A   Unknown
8:56 AM -0.0 °F -17.1 °F -5.1 °F 79% 30.54 in - South 11.5 mph - N/A   Unknown
9:56 AM 1.0 °F -17.3 °F -2.9 °F 83% 30.53 in - SSW 13.8 mph - N/A   Unknown
10:56 AM 6.1 °F -13.3 °F -0.0 °F 76% 30.48 in - SSW 18.4 mph - N/A   Unknown
11:56 AM 7.0 °F -11.0 °F 1.0 °F 77% 30.44 in - South 16.1 mph - N/A   Unknown
12:56 PM 8.1 °F -10.2 °F 1.9 °F 76% 30.41 in - SSW 17.3 mph - N/A   Unknown
1:56 PM 9.0 °F -7.3 °F 3.0 °F 77% 30.38 in - SSW 13.8 mph - N/A   Unknown
2:56 PM 10.0 °F -4.5 °F 3.0 °F 73% 30.38 in - South 11.5 mph - N/A   Unknown
3:56 PM 10.0 °F -6.5 °F 3.0 °F 73% 30.39 in - SSW 15.0 mph - N/A   Unknown
4:56 PM 10.0 °F -4.5 °F 3.0 °F 73% 30.39 in - SW 11.5 mph - N/A   Unknown
5:56 PM 15.1 °F - 5.0 °F 64% 30.36 in - North - - N/A   Unknown
6:56 PM 12.9 °F -0.9 °F 5.0 °F 71% 30.37 in - WSW 11.5 mph - N/A   Unknown
7:56 PM 21.0 °F 7.6 °F 9.0 °F 60% 30.34 in - West 15.0 mph - N/A   Unknown
8:56 PM 21.9 °F 7.8 °F 10.0 °F 60% 30.34 in - West 17.3 mph - N/A   Unknown
9:56 PM 21.0 °F 7.1 °F 9.0 °F 60% 30.34 in - West 16.1 mph - N/A   Unknown
10:56 PM 19.0 °F 8.2 °F 9.0 °F 65% 30.33 in - West 9.2 mph - N/A   Unknown
11:56 PM 21.9 °F 11.0 °F 10.9 °F 63% 30.32 in - WSW 10.4 mph - N/A   Unknown